Theta_e
349 349 348 348 348 348 346 347 348 347 348 349 349 350 349 349 349 349 349 348 349 349 349 349 350 349 348 348 347 345 344 344 345 345 344 344 344 344 343 341 341 340 339 342 345 346 346 345 344 344 344 343 344 343 344 344 344 343 342 340 341 340
347 346 347 346 346 346 346 345 347 348 349 349 349 350 351 350 349 351 348 350 349 347 346 346 347 342 346 349 348 346 345 344 344 344 344 344 344 343 342 342 339 339 338 339 344 348 348 345 344 344 343 344 343 343 344 344 344 342 342 342 341 339
346 346 345 345 345 346 346 346 346 347 348 347 348 348 348 348 348 348 347 345 347 347 344 344 347 344 345 340 348 346 345 345 345 344 343 343 343 342 341 340 338 339 339 337 343 345 348 346 346 343 344 344 346 343 346 345 344 343 341 342 342 339
345 344 343 342 344 344 344 346 344 346 346 348 347 346 347 347 347 348 347 347 345 347 348 348 345 347 348 347 345 346 344 344 343 341 337 345 341 341 340 338 340 339 339 342 343 341 342 345 346 348 347 345 344 344 344 344 340 342 343 340 340 339
343 344 344 343 344 342 346 345 345 346 346 345 345 345 346 347 347 347 347 346 348 349 348 348 349 350 348 348 347 347 348 345 345 346 342 345 344 343 347 342 336 340 342 342 340 342 343 345 347 345 346 344 344 345 343 344 342 341 344 344 344 340
344 345 345 343 344 344 344 344 345 345 345 346 345 344 344 345 345 347 346 347 349 351 351 351 352 352 352 352 351 347 346 346 343 343 344 343 341 344 344 341 338 337 339 342 342 342 342 342 342 343 342 343 343 345 343 341 342 343 344 343 345 340
343 343 345 345 345 343 343 345 345 345 344 344 344 344 343 345 347 346 347 349 351 350 350 350 351 352 351 352 351 350 350 350 348 346 345 342 344 344 342 340 339 338 340 341 341 341 341 342 342 340 341 340 342 342 343 342 342 342 343 343 344 340
343 343 345 346 345 342 344 345 345 344 344 344 343 344 345 346 347 347 348 352 352 352 348 347 349 350 350 352 351 351 350 349 349 348 349 344 342 341 340 340 341 338 336 339 339 341 340 340 342 344 342 341 342 343 344 342 342 344 343 344 344 341
343 343 344 345 344 344 345 346 347 346 345 345 346 346 345 347 347 345 347 347 349 350 349 348 348 349 350 350 350 351 349 349 350 350 350 347 344 342 341 340 341 339 337 338 339 341 341 341 344 344 342 341 343 342 342 342 344 342 343 342 344 342
343 343 344 344 343 344 344 344 346 348 347 348 346 346 348 346 346 346 347 350 351 352 350 348 349 350 349 348 349 352 351 350 349 349 348 350 348 343 341 342 340 339 336 336 335 338 340 340 340 342 340 341 342 342 343 343 342 342 344 345 345 344
343 344 344 343 344 345 347 347 347 349 350 348 347 348 349 350 350 351 351 352 351 351 351 351 349 349 349 346 347 346 346 348 348 349 348 349 350 349 348 344 342 340 340 339 338 338 338 339 338 338 340 339 342 344 342 343 343 343 344 344 345 346
345 345 345 343 345 344 346 346 347 350 349 348 351 350 350 351 350 349 350 352 351 350 349 349 347 348 348 347 346 345 346 346 346 348 349 350 350 349 348 347 346 346 344 342 339 339 339 337 336 335 337 339 340 340 340 342 343 344 344 345 344 345
347 347 346 346 345 346 347 346 347 347 349 348 349 348 349 350 350 349 349 351 351 349 348 346 346 346 345 345 345 345 346 347 349 347 348 347 349 350 349 348 348 347 347 347 344 341 337 339 338 337 337 339 340 338 340 342 343 343 343 343 343 342
349 348 349 348 346 346 347 348 348 348 348 348 350 349 348 349 349 349 350 350 349 348 348 348 347 345 345 343 344 343 344 344 347 348 348 350 348 348 347 347 346 346 345 346 345 346 343 341 338 339 340 341 342 341 340 339 340 341 343 345 344 345
349 348 348 347 347 346 347 345 346 348 348 349 348 348 349 349 348 349 349 347 347 347 348 346 345 345 343 343 342 342 343 342 346 348 347 348 346 346 347 346 346 344 345 345 345 345 344 344 344 344 346 346 345 346 346 345 345 344 342 344 346 345
348 348 346 346 347 348 347 347 347 346 348 350 347 345 346 347 349 349 348 348 347 347 346 345 345 345 344 343 341 342 342 345 345 347 345 345 345 343 344 344 346 345 342 343 343 343 344 343 345 344 346 346 346 346 346 345 345 345 345 345 343 345
346 345 346 346 347 347 347 347 349 350 348 348 346 346 347 348 348 348 347 347 347 346 346 345 345 345 344 343 342 344 343 346 348 346 346 344 344 343 343 341 344 344 344 341 339 340 342 343 343 343 345 345 345 345 345 345 346 346 347 346 345 345
345 345 346 346 347 347 347 349 348 347 348 346 346 347 348 347 346 346 347 346 346 345 344 345 346 346 346 345 345 344 346 347 347 347 346 346 346 346 345 345 343 344 342 341 338 339 338 339 339 339 339 341 342 341 342 343 344 342 343 343 343 343
345 346 346 347 347 348 348 348 347 346 347 345 347 347 347 344 343 345 344 344 344 344 344 346 346 346 347 345 345 345 345 344 344 344 345 345 344 345 345 344 343 342 344 343 340 340 340 337 337 336 336 338 339 341 340 341 342 341 342 343 342 342
347 347 346 346 346 344 344 344 344 346 344 342 344 343 344 343 344 343 343 343 342 342 343 343 344 345 346 345 344 343 343 343 342 343 342 342 341 341 339 338 339 339 338 339 340 339 339 337 336 336 336 337 338 339 340 341 341 342 342 343 343 343
345 346 345 344 344 344 342 344 345 342 339 340 340 340 340 342 341 342 342 341 341 342 342 342 342 342 343 341 341 342 341 339 340 340 340 339 339 338 338 338 337 338 336 335 335 338 338 337 333 332 335 335 336 338 340 341 342 342 342 341 341 341
347 347 347 346 344 345 346 344 343 340 338 338 338 337 336 337 338 339 340 340 341 340 340 340 340 340 340 340 339 338 338 338 339 338 338 338 337 337 337 337 336 335 336 334 334 336 336 336 331 328 327 328 331 335 339 342 342 342 342 342 342 342
345 345 345 344 342 342 343 344 342 340 339 336 339 339 338 338 338 338 339 339 340 340 339 339 339 339 339 339 339 339 338 338 337 337 337 337 336 336 336 335 335 333 332 335 334 336 336 336 329 331 330 328 324 324 331 335 340 340 340 341 341 341
343 344 343 343 343 344 344 343 343 341 339 337 335 337 337 337 337 336 335 337 338 338 338 338 338 338 338 338 338 338 337 337 338 337 335 334 334 334 336 335 335 334 334 330 330 331 336 336 335 330 323 323 324 325 320 325 328 333 336 338 340 340
340 341 342 342 343 343 341 340 339 338 337 335 335 333 333 332 333 333 334 334 334 335 335 335 335 335 335 334 334 335 335 335 335 336 335 333 333 333 334 334 334 333 332 330 329 332 334 336 335 337 329 324 322 321 321 324 327 328 335 333 334 334
339 339 340 342 342 341 340 338 336 333 331 330 329 329 328 328 329 330 329 331 331 331 331 331 331 331 330 329 328 329 330 330 331 331 332 331 330 329 329 330 330 330 330 331 330 330 331 334 335 335 335 333 333 322 322 325 325 320 331 333 333 333
338 337 338 339 341 339 338 337 336 335 334 332 329 329 330 330 329 330 329 328 327 327 325 325 326 328 327 327 327 326 328 329 328 328 328 327 325 324 325 327 328 328 328 328 329 325 326 328 332 334 336 335 333 332 331 327 321 324 320 327 331 331
335 336 338 339 338 339 337 336 335 333 332 330 330 328 329 328 329 328 328 327 327 325 325 325 326 325 325 324 324 325 325 325 325 327 324 324 322 323 324 326 328 328 328 328 327 324 323 325 323 325 329 329 330 332 332 331 331 324 323 321 323 330
331 332 333 336 336 336 335 335 333 332 329 329 328 327 327 327 326 327 326 325 325 324 324 324 323 323 323 322 323 323 323 322 322 323 322 324 324 324 324 324 324 323 324 324 325 325 323 322 323 322 323 325 325 325 327 329 330 329 325 322 322 323
328 329 330 332 333 333 333 333 331 331 329 327 327 326 326 325 326 326 323 323 322 321 321 321 320 320 321 320 319 320 320 320 320 319 319 320 320 319 320 322 323 322 322 322 324 323 321 322 323 323 322 321 320 321 322 323 324 324 326 327 322 321
325 325 327 328 329 328 330 330 328 327 326 325 325 325 323 323 322 323 321 320 320 319 319 318 318 317 317 317 317 317 316 316 317 317 316 316 316 316 317 319 320 320 321 320 320 319 319 320 319 319 320 320 319 319 318 317 318 320 321 320 320 322
323 324 325 326 326 326 325 325 325 325 324 324 323 322 322 320 320 319 319 318 317 318 317 316 316 315 315 316 316 315 316 315 315 315 314 315 316 315 316 317 317 317 317 317 316 315 316 314 314 314 316 316 316 318 319 319 320 320 318 318 319 319
321 322 323 324 324 323 323 323 322 322 321 321 321 320 319 318 317 317 316 317 317 314 314 313 313 313 314 314 314 314 314 313 313 314 314 314 315 315 315 315 315 316 316 315 313 313 312 312 312 311 311 313 314 316 316 318 318 318 319 318 317 316
320 322 322 322 322 321 321 321 321 320 320 319 318 318 317 316 316 316 315 314 314 313 312 312 312 312 313 313 312 313 313 313 312 313 313 313 314 314 314 313 314 314 314 313 313 313 313 312 312 312 312 311 312 313 314 314 315 315 315 315 315 315
319 320 320 320 320 319 318 319 318 318 318 318 316 315 315 315 315 314 314 313 314 313 312 312 312 313 313 312 312 312 312 312 311 312 312 312 313 313 314 313 313 313 313 313 313 313 313 312 310 310 311 310 310 311 311 312 312 313 313 313 313 314
319 319 319 318 318 318 317 317 316 316 315 316 315 315 314 314 313 313 314 313 312 313 312 312 313 312 312 312 311 311 311 311 311 311 311 311 311 311 312 312 311 312 311 312 312 313 312 312 311 311 311 311 310 310 312 311 312 312 312 313 313 314
318 318 318 317 316 316 316 315 315 315 314 314 314 313 312 312 313 314 313 313 311 312 313 312 312 312 311 311 310 310 310 310 310 310 310 311 310 310 311 311 311 310 309 311 312 311 311 311 311 311 310 311 310 310 311 312 312 311 312 312 313 313
Wind_Speed
8 8 9 9 8 8 9 10 10 10 10 10 11 12 11 11 12 12 9 6 7 3 3 3 6 5 9 6 7 6 6 6 6 6 5 6 6 7 6 3 3 2 1 1 3 6 8 7 6 5 5 5 7 9 2 2 0 1 1 3 3 6
8 8 8 7 6 7 8 8 9 9 8 8 9 9 9 7 8 8 8 6 2 2 1 2 2 2 3 7 8 5 6 5 5 6 6 6 7 7 6 4 2 2 2 3 6 5 7 7 6 6 6 7 9 1 1 1 2 1 0 2 2 10
8 8 7 7 6 7 8 7 8 7 6 5 6 6 6 6 5 5 3 3 2 2 2 3 3 3 3 6 7 5 5 5 6 6 3 4 5 6 5 5 2 1 3 6 8 3 4 6 6 8 8 8 6 0 1 1 1 2 1 4 1 12
7 8 7 6 6 7 6 6 6 6 6 5 5 4 4 3 3 3 3 2 2 3 3 3 5 7 6 6 7 9 6 8 9 7 2 8 10 7 6 6 4 3 8 7 4 3 3 4 5 5 5 4 2 1 2 2 3 0 3 2 2 12
7 7 7 6 6 6 6 5 6 6 5 5 5 4 4 4 3 3 3 3 4 3 2 2 3 2 1 2 3 4 5 3 2 3 3 1 1 4 9 5 6 7 5 4 3 2 1 3 3 4 3 2 2 2 3 3 2 3 1 1 5 10
7 6 6 6 6 6 6 6 6 5 5 5 5 4 4 4 4 4 3 3 3 2 1 2 1 2 1 1 1 1 2 2 2 1 2 0 2 1 1 2 3 4 3 4 3 2 3 3 3 3 3 3 3 3 4 3 3 2 3 2 7 12
7 7 7 7 7 6 6 6 6 5 6 5 5 5 4 4 3 3 2 2 1 1 1 1 1 1 1 1 2 1 1 1 1 1 1 1 1 1 1 1 2 3 4 4 5 4 4 4 3 3 4 4 4 4 3 4 3 4 4 4 6 14
7 7 7 7 7 7 6 6 6 6 5 5 5 4 4 4 4 3 3 1 1 1 1 0 1 1 1 1 1 2 1 0 1 1 1 1 1 1 1 0 0 3 5 5 6 5 4 4 5 5 5 5 4 5 4 4 3 4 4 4 5 13
8 8 7 7 7 6 6 6 6 5 6 6 4 4 4 4 3 2 2 1 2 2 1 1 2 2 2 2 1 1 1 0 0 1 0 1 0 1 1 2 1 3 4 4 5 5 5 5 5 5 6 6 5 5 5 5 5 5 5 5 6 9
8 8 7 7 6 6 6 6 5 5 6 5 4 4 5 3 3 2 2 2 1 1 2 3 2 2 2 2 1 0 1 0 1 0 1 0 1 1 1 1 3 3 4 4 5 5 5 6 8 7 6 7 5 6 5 6 6 6 6 5 5 3
9 8 7 7 6 6 5 5 5 4 4 4 5 4 4 3 3 2 2 1 1 2 2 2 2 2 1 1 1 2 1 1 0 1 1 2 1 2 2 2 2 3 3 4 4 4 5 7 7 7 6 7 6 5 6 6 6 7 7 6 6 6
9 8 7 8 6 6 5 5 5 4 4 4 5 3 3 3 3 2 3 2 3 3 2 2 3 2 2 1 1 2 2 2 2 1 1 2 2 2 3 2 3 3 4 5 5 5 5 6 7 8 8 7 6 8 7 7 7 7 7 7 7 6
9 9 8 7 6 5 5 5 4 4 4 4 2 4 3 3 4 3 3 4 3 3 2 3 3 2 2 2 2 1 1 2 2 1 2 2 3 2 2 2 2 3 4 4 5 6 7 6 7 8 8 8 8 9 8 7 7 7 8 8 8 8
8 8 7 6 6 5 4 4 4 4 4 3 3 4 4 4 3 2 4 4 3 3 3 2 3 3 2 2 2 1 2 1 1 3 2 3 2 2 3 3 3 3 2 4 4 5 5 7 7 7 7 7 7 8 8 9 9 8 7 8 8 8
8 7 7 6 6 6 4 4 4 4 4 4 4 4 5 3 3 3 4 3 3 3 3 4 4 2 2 1 2 2 1 2 1 2 2 2 3 3 3 4 4 4 4 5 5 5 6 6 7 7 7 7 8 8 8 8 9 9 9 9 8 8
7 7 7 6 6 6 5 4 4 5 5 5 5 5 4 4 4 4 3 3 4 4 4 4 4 3 2 1 1 1 1 1 2 1 1 2 2 2 3 3 4 4 5 5 5 6 5 6 7 8 7 7 7 7 8 8 9 9 9 8 9 8
8 8 8 8 7 6 6 6 6 6 6 5 5 5 5 4 3 3 3 4 4 4 4 4 4 3 3 2 2 1 2 2 1 1 2 2 2 2 3 3 3 4 4 5 6 7 6 6 7 7 7 8 7 8 8 8 9 8 8 8 8 8
9 8 7 8 7 7 7 7 6 6 6 5 6 5 4 4 4 4 4 4 4 4 4 4 4 3 3 2 2 2 2 2 2 2 2 2 2 3 3 3 4 4 4 5 5 6 6 6 6 7 8 8 9 8 9 9 9 9 8 8 8 8
9 9 7 7 7 7 7 6 6 7 7 6 6 5 5 5 5 5 5 6 5 4 4 4 4 3 2 2 2 3 3 4 3 3 3 3 3 4 4 5 5 5 5 5 5 6 7 8 8 8 9 10 10 10 9 9 9 8 8 8 8 8
8 8 8 7 7 6 6 5 6 6 7 6 6 6 6 6 6 6 6 6 6 5 6 5 5 5 5 5 4 4 4 4 4 3 4 4 4 5 6 7 7 6 6 6 6 6 6 7 8 10 10 9 9 10 10 9 8 8 8 8 8 7
7 7 6 5 4 4 4 6 6 7 7 7 7 7 7 7 7 6 6 7 7 6 7 7 7 6 6 5 4 4 5 5 4 5 5 5 5 6 5 5 6 5 6 7 6 5 6 7 9 9 7 8 9 8 8 8 8 7 7 7 7 7
6 6 5 5 6 5 4 4 5 7 7 6 6 7 7 7 6 6 6 6 6 6 6 6 6 5 5 5 4 4 4 4 5 5 4 3 5 5 5 6 6 6 5 7 7 6 6 7 7 8 10 9 9 6 5 5 6 5 6 6 6 6
6 6 6 6 5 6 7 6 6 7 7 6 6 7 7 7 6 6 6 6 6 6 5 5 4 4 5 5 4 4 4 3 4 5 5 5 5 5 5 6 6 6 7 7 7 5 5 6 8 8 9 9 8 9 4 4 5 5 6 6 6 7
7 7 7 7 7 9 10 10 10 9 8 7 7 7 7 7 6 6 6 6 6 5 6 6 7 6 6 7 8 7 6 5 5 6 6 6 6 7 7 6 7 7 7 8 8 7 6 7 7 8 8 8 9 8 9 4 8 8 8 7 6 7
7 7 7 8 8 9 10 9 9 10 9 9 7 5 5 5 5 6 6 6 6 6 6 6 7 7 8 8 8 7 7 7 8 7 6 7 7 8 8 8 9 8 9 9 10 9 8 6 6 5 7 8 7 6 7 10 11 10 5 5 7 8
7 7 7 7 7 6 7 8 9 8 7 6 6 5 5 5 5 5 5 6 7 7 8 7 7 8 8 7 8 8 7 6 6 6 6 6 6 7 9 10 9 9 9 9 10 10 9 7 7 6 6 5 5 6 9 11 11 8 8 9 8 8
7 7 6 5 5 4 4 4 4 5 4 6 6 6 5 5 4 4 4 5 6 7 8 7 7 7 8 8 7 7 7 7 6 6 6 6 6 6 6 7 7 7 8 8 9 9 10 9 10 6 6 7 8 8 8 9 8 11 12 8 8 9
7 7 6 5 6 5 5 5 6 6 5 5 5 6 5 5 4 4 4 4 4 5 6 6 7 8 8 8 7 7 7 7 7 7 6 6 6 5 7 7 7 8 8 7 8 7 9 8 8 9 10 10 10 10 9 10 9 9 11 14 13 9
9 8 8 7 6 6 6 5 4 5 5 5 5 5 4 4 4 3 4 4 4 4 6 7 8 8 8 8 7 7 7 7 7 7 6 7 7 8 8 8 8 7 7 7 7 8 8 8 8 8 10 9 10 10 10 10 11 10 9 11 14 12
9 8 8 9 8 7 5 4 4 4 5 4 4 4 3 3 3 3 4 4 4 4 5 6 7 8 8 8 8 8 7 8 7 7 7 7 8 8 8 7 7 7 8 8 7 7 7 8 8 8 8 9 9 9 9 9 9 11 11 11 12 14
9 8 9 9 10 9 7 6 5 6 6 5 4 4 4 3 4 3 4 4 4 5 5 6 6 7 8 8 8 8 8 8 8 7 7 7 7 7 7 6 6 8 7 8 7 9 8 8 8 9 9 8 8 8 9 9 9 9 10 11 13 14
9 9 8 9 9 9 8 8 8 8 7 6 5 5 5 5 5 5 4 4 5 5 6 6 7 7 7 8 7 7 8 7 7 7 7 6 7 7 7 6 7 6 6 7 8 8 7 8 10 7 8 8 8 9 9 9 9 9 9 10 11 14
9 9 9 9 10 10 9 8 8 8 8 7 7 7 6 6 5 5 5 6 6 6 6 7 7 7 7 8 7 7 7 7 7 7 7 7 7 8 7 6 7 8 7 7 8 9 8 9 9 9 9 8 8 8 8 9 9 10 9 9 10 12
9 9 9 10 10 10 9 8 8 7 7 6 7 7 6 6 6 6 6 6 6 6 6 7 7 7 7 7 7 7 7 7 7 8 8 7 7 7 8 6 7 8 8 7 7 9 8 9 8 10 9 8 9 8 8 8 9 9 10 10 10 11
10 9 9 9 9 10 8 8 8 7 6 6 7 6 6 6 7 7 7 7 6 6 6 6 7 7 7 7 7 7 8 8 8 8 8 8 7 7 7 6 7 7 7 7 7 8 7 9 9 11 10 9 9 8 9 8 8 9 9 9 10 11
10 9 9 9 9 8 8 8 8 8 8 7 6 6 7 7 7 7 7 7 7 6 6 7 7 7 7 7 7 8 8 9 9 9 8 9 8 7 8 7 7 8 8 6 7 8 7 8 9 10 10 10 9 9 9 9 9 9 9 9 9 10
9 9 9 9 9 9 8 8 8 8 8 8 8 8 8 9 8 8 7 7 6 7 7 6 6 6 7 7 8 7 7 8 9 9 9 9 9 8 8 7 7 8 9 9 8 8 8 8 8 8 9 11 9 8 9 10 9 9 9 9 9 9
Wind_Direction
129 130 128 127 133 125 119 124 119 108 107 114 119 122 128 138 134 125 131 142 182 173 84 119 152 100 149 103 108 112 100 89 79 78 84 77 73 91 93 97 85 65 67 96 121 134 152 158 156 156 160 175 202 223 42 39 293 100 35 120 214 94
125 121 126 130 127 125 136 147 132 137 131 129 127 145 159 146 139 125 144 174 126 93 115 106 81 111 123 135 118 104 116 109 97 93 80 80 76 88 98 96 79 37 9 240 187 162 151 153 160 166 169 198 222 227 146 53 280 130 56 113 240 108
117 135 135 130 132 132 136 132 138 138 132 145 143 158 143 147 135 130 116 95 86 87 115 114 89 68 84 50 93 104 110 115 109 84 93 105 100 89 89 102 83 325 284 247 225 185 162 154 157 174 186 215 234 213 57 317 296 286 231 58 314 121
133 139 142 130 132 135 130 136 138 139 136 134 155 143 133 113 103 95 117 104 133 133 130 118 141 171 182 163 141 157 161 161 155 139 195 204 154 142 143 144 138 239 225 215 213 189 167 162 157 175 190 210 211 181 226 203 251 204 304 115 98 131
138 136 134 130 132 129 131 141 133 129 127 130 136 141 142 145 141 143 150 162 164 160 109 79 78 82 82 106 135 143 172 165 143 148 205 125 220 131 190 147 157 207 207 223 206 175 203 149 182 180 176 214 203 219 240 226 233 277 236 220 116 147
136 134 133 133 123 126 137 134 130 120 127 130 132 131 141 146 143 157 160 152 110 119 134 101 55 44 52 48 68 67 73 107 145 133 183 165 108 228 108 149 166 183 191 212 219 206 194 206 186 212 201 202 223 220 235 251 238 221 258 245 144 159
133 133 128 122 127 137 130 129 132 133 133 133 137 140 138 140 145 153 165 110 93 64 86 43 67 56 33 10 40 44 71 99 67 81 135 185 139 165 263 121 172 185 197 208 212 201 208 207 250 235 227 225 224 239 237 240 230 226 229 224 156 167
135 134 132 130 127 130 132 135 127 131 140 130 144 136 133 130 141 152 134 122 342 33 21 46 93 357 41 6 17 33 35 87 126 130 74 220 186 180 196 194 163 204 205 209 212 217 227 221 216 243 257 252 243 251 261 270 266 266 253 223 223 171
134 135 129 131 129 134 138 135 141 145 130 156 135 131 123 138 147 128 117 114 58 23 360 7 14 4 15 26 357 356 324 34 317 53 221 9 360 227 210 227 215 246 205 225 220 218 230 235 239 239 246 251 252 264 265 267 265 256 251 258 246 178
138 137 130 131 132 133 134 132 135 132 130 148 130 141 157 148 123 96 77 49 36 18 347 8 4 3 2 27 25 16 286 31 334 5 314 360 6 278 279 257 248 249 262 223 239 226 227 238 233 237 243 259 255 256 257 259 257 254 264 254 246 211
136 136 138 132 134 131 135 140 134 135 137 138 132 133 127 116 109 93 77 52 28 39 351 4 357 358 358 356 29 1 5 349 47 39 355 338 337 312 297 292 286 301 295 300 295 280 254 253 259 257 242 250 259 263 263 262 262 265 265 261 254 250
141 141 139 132 135 133 138 136 132 133 136 128 127 134 114 111 100 102 89 72 56 34 27 29 21 360 328 353 23 25 13 345 6 8 347 325 310 317 295 294 293 269 281 276 268 270 271 269 264 262 265 258 263 264 261 261 262 264 262 268 268 251
143 146 146 142 137 139 144 138 140 136 130 122 121 110 100 86 79 78 75 74 64 67 43 39 31 23 356 15 33 359 17 12 351 339 316 314 323 301 283 274 251 266 264 265 271 269 265 265 268 266 266 267 266 266 271 274 269 262 263 258 258 263
137 134 133 132 135 139 137 138 139 128 121 121 102 87 80 71 82 83 80 60 58 55 52 45 34 42 37 53 55 34 39 68 333 337 334 343 329 336 319 320 307 286 284 284 278 273 276 271 270 275 273 273 273 281 286 281 278 276 268 262 262 257
141 136 137 129 129 133 144 143 130 127 117 110 96 77 72 87 85 80 73 70 59 56 41 42 48 37 61 73 81 54 38 45 352 349 337 4 329 333 328 324 334 320 323 303 299 300 297 294 290 286 288 286 280 283 277 274 272 268 267 265 262 260
129 131 128 130 137 134 131 129 119 108 109 98 95 89 86 69 60 60 68 75 56 53 45 45 46 47 64 64 83 98 76 53 15 341 348 1 320 341 338 327 326 321 315 308 305 297 295 295 292 288 286 287 288 284 283 281 278 274 268 268 262 255
133 131 138 145 143 135 140 130 115 107 107 109 100 101 92 92 79 74 63 57 57 49 48 49 58 68 70 60 53 52 58 33 323 358 339 340 321 358 338 333 323 324 312 311 307 304 301 296 296 296 290 289 287 285 280 281 281 277 276 267 267 267
133 146 146 145 143 145 131 125 118 105 89 94 95 82 82 82 71 58 57 58 58 55 46 43 41 44 54 56 58 42 53 14 349 345 343 321 349 345 339 324 317 315 306 301 296 299 298 299 297 295 293 291 291 288 286 283 281 282 276 272 270 266
150 144 142 140 138 130 129 121 119 117 112 98 86 89 87 77 67 62 59 52 47 50 49 47 41 27 24 15 32 32 24 12 6 349 349 344 350 353 343 336 325 319 311 303 301 293 291 296 293 291 290 285 279 272 272 271 277 283 285 280 271 268
139 137 137 142 146 144 143 127 113 99 88 80 77 72 68 69 72 70 64 55 53 47 47 40 40 35 38 31 27 26 24 15 16 3 5 360 352 351 353 339 328 327 318 302 292 295 298 303 299 292 290 287 281 277 270 267 266 270 275 274 272 267
133 133 136 131 119 111 115 112 100 90 86 84 82 78 76 72 71 73 69 66 61 51 47 43 36 39 35 43 37 33 30 22 14 16 9 3 353 344 342 326 324 316 309 312 310 313 308 306 302 299 295 293 290 282 267 256 259 258 261 267 268 268
112 108 99 98 104 96 91 94 110 109 103 96 104 95 83 76 75 76 74 71 69 67 58 49 41 41 39 35 42 45 35 27 20 16 354 356 354 351 331 335 333 317 320 314 315 321 320 316 304 318 318 316 300 292 265 240 246 253 257 256 257 259
105 103 102 101 102 99 99 95 100 100 101 94 76 88 94 93 87 81 76 71 66 62 60 58 52 29 30 21 16 34 42 17 15 5 352 2 360 339 345 335 337 331 325 315 310 312 317 318 313 317 308 299 315 320 308 238 203 241 250 259 266 270
97 97 90 84 85 89 85 90 93 99 106 104 99 93 94 95 101 94 76 58 56 54 48 43 32 25 27 19 9 14 17 4 28 20 354 350 347 341 349 350 350 338 325 318 322 326 322 318 313 321 318 327 311 305 306 323 332 314 299 288 275 276
97 93 96 103 104 105 109 107 105 102 106 105 101 98 101 97 90 80 73 64 53 48 54 53 44 36 32 29 21 14 15 17 14 11 2 357 357 351 343 344 347 346 342 338 325 323 313 313 311 312 308 313 314 298 323 322 326 307 300 295 278 273
94 91 96 103 106 117 126 134 136 137 131 127 123 122 105 88 78 71 73 74 56 41 41 37 37 39 38 31 26 24 23 26 21 17 15 14 14 5 356 346 350 346 338 342 334 318 320 327 323 313 304 300 291 298 310 321 318 308 311 293 292 295
96 90 78 79 89 96 101 114 114 95 111 120 117 101 98 96 90 94 99 80 69 50 44 49 43 41 41 34 31 24 19 14 15 15 14 14 13 11 352 340 345 341 334 331 337 330 334 332 327 324 344 320 306 296 295 300 302 310 305 306 302 302
91 85 74 74 80 80 95 88 90 98 99 93 103 109 104 97 90 91 80 75 79 60 52 42 32 32 35 32 27 20 15 13 8 3 360 4 3 357 344 338 338 337 335 339 328 323 323 325 327 321 335 326 318 312 303 293 283 286 296 301 302 303
85 87 85 82 82 64 69 79 93 110 112 112 115 116 114 113 110 87 80 66 55 52 49 43 39 37 34 32 26 21 18 16 10 3 351 352 349 341 337 334 337 340 337 332 325 329 321 320 321 318 323 317 318 312 312 303 298 293 288 297 299 304
75 72 71 75 81 83 81 75 67 65 100 113 116 103 92 99 102 98 76 69 63 53 48 50 46 38 35 34 31 26 26 23 17 11 7 4 358 356 354 349 347 343 334 335 328 333 328 319 319 321 321 318 313 314 309 311 312 315 308 302 298 306
71 74 73 73 73 76 73 69 77 72 77 82 82 96 109 96 82 79 80 73 71 67 58 56 52 46 40 38 38 36 32 31 27 21 14 9 7 359 354 354 357 354 2 358 353 347 338 336 337 330 324 319 319 319 319 314 311 310 313 307 304 300
81 81 83 80 76 73 75 79 79 79 78 75 79 83 82 81 77 79 76 82 80 77 70 62 54 51 44 35 39 36 32 29 28 19 14 7 6 359 354 356 9 3 9 9 9 359 357 355 347 337 336 335 324 317 309 309 317 316 311 309 307 302
93 88 85 83 80 76 73 72 71 72 71 70 68 68 73 75 73 73 77 79 79 75 69 64 58 55 46 39 38 37 32 27 24 20 12 8 4 5 358 1 13 6 11 10 11 3 4 358 353 350 343 336 334 332 327 325 318 317 313 308 302 302
95 90 86 85 82 79 74 70 68 69 69 70 70 66 65 67 62 65 72 75 74 75 76 72 66 53 45 42 43 40 35 32 26 20 16 12 8 11 4 5 18 11 7 9 5 3 7 1 357 356 351 347 346 338 340 340 333 326 325 320 314 312
103 95 89 84 81 78 76 74 72 71 71 73 75 75 70 68 71 74 75 76 77 76 77 71 63 58 47 46 43 40 36 31 27 22 19 17 11 16 10 10 19 13 9 5 359 2 3 2 1 357 356 355 347 347 345 346 338 335 332 325 318 316
99 95 89 85 84 83 81 80 79 79 78 78 77 76 79 77 77 78 78 79 78 71 72 71 65 59 52 46 42 39 37 34 28 25 22 20 17 15 12 15 16 14 9 3 354 360 2 360 2 359 359 355 351 350 347 344 341 340 335 330 323 319
102 98 88 84 84 85 87 85 85 84 82 83 82 82 83 84 84 79 76 77 76 73 69 66 66 60 55 50 44 36 38 34 31 27 24 21 19 18 13 18 14 14 10 0 358 4 1 358 359 357 359 355 354 350 351 346 343 341 339 334 329 322